STARLINK-35970, 66618

Orbit data source: Space-Track

STARLINK-35970, 66618 is a payload satellite owned by SpaceX/Seattle (US) in LEO that was launched on Sun, 23 Nov 2025 UTC via an FALCON 9 launch vehicle from the Air Force Western Test Range (AFWTR). Payload-class satellites include a variety of spacecraft equipped with specific instruments for various scientific and technological missions. These include communications satellites like Starlink; space stations such as the ISS; scientific satellites like the Hubble; Earth observation satellites from companies like Planet Labs, Umbra, and HawkEye 360; GPS; miniature CubeSats for education and research; and military/defense satellites.

Loading next visibility...
Identifier
66618, 2025-271B
Orbit
LEO
Country
Flag of USUS
Related business
Manufacturer
SpaceX/Seattle
Mission
Operational Commercial Communications
Bus & Motor
STARLINK V2MO, Unknown motor
Mass
575 kg wet, ~530 kg dry
Launch date (UTC)
2025-11-23 (1 month ago)
Launch vehicle
FALCON 9
Launch site
Air Force Western Test Range (AFWTR)
Object type
Payload
Rocket body
Debris
Shape & HBR
Box + 2 Pan, 17.7 m
Radar Cross Section
36.964 m²

Expand to show TLE details & history
Last TLE update: 2 days ago

TLE from 2 days ago
0 STARLINK-35970
1 66618U 25271B   25353.94001647 -.00400830  00000-0 -83391-2 0  9996
2 66618  53.1597 152.7030 0001439  41.7030 318.4087 15.46560751  5320
Epoch: 2025-12-19T22:33Z
TLE epoch observation values (Epoch: 2025-12-19T22:33:37.423Z)
Latitude
-0.00003°
Longitude
85.52308°
Altitude
426.97 km
Speed
7.657 km/s
True Right ascension
10h 10m 48s
True Declination
0° 00' 00"
Sunlit
Object was in full shadow at epoch
Visualization orbit readout
Latitude
Unknown
Longitude
Unknown
Altitude
Unknown
Speed
Unknown
Apparent Right ascension
Unknown
Apparent Declination
Unknown
Sunlit
N/A
Visualization observer readout
Local Sidereal Time
13:58:18
Azimuth
Unknown
Elevation
Unknown
Doppler factor
Unknown
Orbital elements
Apogee altitude
428.033 km
Perigee altitude
426.075 km
Semi-major axis
6,805.191 km
Eccentricity
0.00014
Inclination
53.1597°
RAAN
152.703°
Arg. of periapsis
41.703°
True anomaly
318.39775°
Mean anomaly
318.4087°
Eccentric anomaly
318.40323°
Mean motion
3.86619 °/min
Orbital period
93.12 mins
BSTAR
-0.0083391
Loading maneuver chart data...
Computing Atmospheric mass density...
Loading historical data...
Loading historical data...
Loading historical data...
Loading historical data...
Loading historical data...
Loading historical data...
Loading historical data...

Documentation

Showing up to 5 results
|